SL-16 DEB, 22441

Orbit data source: Space-Track

SL-16 DEB, 22441 is space debris in LEO originally from a launch on Fri, 25 Dec 1992 UTC launched from the Tyuratam Missile And Space Complex (TTMTR). Debris objects in space refer to the collection of defunct objects orbiting the Earth. Examples of debris include non-operational satellites, rocket bodies, and fragments generated from explosions, collisions, or faulty payload assembly.

Loading next visibility...
Identifier
22441, 1992-093EJ
Orbit
LEO
Country
Flag of CISCIS
Related business
Manufacturer
Unknown
Mission
Spacecraft
Bus & Motor
Unknown
Mass
Unknown
Launch date (UTC)
1992-12-25 (33 years ago)
Launch vehicle
Unknown
Launch site
Tyuratam Missile And Space Complex (TTMTR)
Object type
Payload
Rocket body
Debris
Shape & HBR
Unknown shape, 0.5 m
Radar Cross Section
Medium (>0.1 m² and <1 m²)

Expand to show TLE details & history
Last TLE update: 6 hours ago

TLE from 6 hours ago
0 SL-16 DEB
1 22441U 92093EJ  25297.69808134  .00000573  00000-0  37357-3 0  9993
2 22441  71.1977  29.6344 0087252 283.1423 229.9617 14.04619655677087
Epoch: 2025-10-24T16:45Z
TLE epoch observation values (Epoch: 2025-10-24T16:45:14.227Z)
Latitude
26.10789°
Longitude
-84.56842°
Altitude
921.556 km
Speed
7.373 km/s
True Right ascension
13h 20m 19s
True Declination
25° 58' 31"
Sunlit
Object was in daylight at epoch
Visualization orbit readout
Latitude
Unknown
Longitude
Unknown
Altitude
Unknown
Speed
Unknown
Apparent Right ascension
Unknown
Apparent Declination
Unknown
Sunlit
N/A
Visualization observer readout
Local Sidereal Time
18:20:48
Azimuth
Unknown
Elevation
Unknown
Doppler factor
Unknown
Orbital elements
Apogee altitude
939.049 km
Perigee altitude
812.466 km
Semi-major axis
7,253.895 km
Eccentricity
0.00873
Inclination
71.1977°
RAAN
29.6344°
Arg. of periapsis
283.1423°
True anomaly
229.20157°
Mean anomaly
229.9617°
Eccentric anomaly
229.5811°
Mean motion
3.51307 °/min
Orbital period
102.47 mins
BSTAR
0.00037357
Loading maneuver chart data...
Computing Atmospheric mass density...
Loading historical data...
Loading historical data...
Loading historical data...
Loading historical data...
Loading historical data...
Loading historical data...
Loading historical data...

Documentation

Showing up to 5 results
|